[[{"header":{"parameterUnit":"m.s-1","parameterCategory":2,"la1":30.2991,"la2":30.254,"lo1":-89.0895,"lo2":-89.0444,"dy":0.0017,"dx":0.0017,"nx":28,"ny":28,"refTime":"2025-09-13T21:00:00:Z","depth":"0","parameterNumber":2,"parameterNumberName":"U-component_of_CURRENTS"},"data":[0,0,0,0,0,0,0,0,0,0,0,0,0,0,0,0,0,0,0,0,0,0,0,0,0,0,0,0,0,0,0,0,0,0,0,0,0,0,0,0,0,0,0,0,0,0,0,0,0,0,0,0,0,0,0,0,0,0,0.2916,0.2916,0,0.296,0.296,0.296,0.2963,0.2963,0.2962,0.2962,0.2963,0.2963,0.2963,0,0,0,0,0,0,0,0,0,0,0,0,0,0.2825,0.2826,0.2916,0.2916,0.2917,0.296,0.296,0.2961,0.2963,0.2963,0.2962,0.2962,0.2963,0.2963,0.2963,0,0,0,0,0,0,0,0,0,0,0,0,0,0.2865,0.2827,0.2916,0.2924,0.2926,0.296,0.296,0.2961,0.2963,0.2963,0.2962,0.2962,0.2962,0.2963,0.2964,0.2978,0,0,0.2965,0.2965,0,0,0,0,0,0,0,0,0.2863,0.2868,0.2922,0.2924,0.2925,0.2957,0.2929,0.2965,0.2963,0.2948,0.2962,0.2961,0.2958,0.2959,0.2967,0.2978,0.2978,0.2965,0.2966,0.2966,0.2966,0,0,0,0,0,0,0,0.286,0.2866,0.2932,0.2923,0.2925,0.2923,0.2928,0.2935,0.2953,0.2949,0.295,0.2957,0.2958,0.2967,0.2967,0.2978,0.2965,0.2966,0.2966,0.2966,0.3053,0.3055,0,0,0,0,0,0,0.2859,0.2864,0.293,0.2933,0.2894,0.2925,0.2931,0.2946,0.2954,0.2956,0.2957,0.2957,0.2966,0.2966,0.2967,0.3021,0.2966,0.2966,0.2967,0.3051,0.3054,0.3056,0,0,0,0,0,0,0.2857,0.2864,0.2929,0.29,0.2908,0.2928,0.2945,0.2947,0.2957,0.2962,0.2962,0.2965,0.2965,0.2966,0.2993,0.302,0.2967,0.2967,0.3049,0.3052,0.3055,0.3106,0,0,0,0,0,0,0.2854,0.2864,0.2869,0.29,0.291,0.2957,0.2945,0.2949,0.2963,0.2963,0.2968,0.2968,0.2965,0.2992,0.2993,0.3019,0.2968,0.3046,0.305,0.3054,0.3102,0.3111,0.3118,0,0,0,0,0,0.2851,0.2866,0.287,0.2877,0.2919,0.2958,0.2963,0.2973,0.2964,0.2977,0.2988,0.2967,0.3017,0.2994,0.2995,0.3022,0.3045,0.3049,0.3054,0.3099,0.3109,0.3118,0,0,0,0,0,0,0.2825,0.2869,0.2873,0.2899,0.2928,0.2959,0.2972,0.2976,0.2995,0.2993,0.2989,0.2991,0.3028,0.3021,0.2996,0.3061,0.3029,0.3033,0.3063,0.3072,0.308,0.3065,0.2968,0,0,0,0,0,0.2823,0.2852,0.2887,0.2909,0.2924,0.2947,0.2961,0.2971,0.2994,0.3001,0.3009,0.3023,0.3049,0.3055,0.3075,0.3103,0.3147,0.3123,0.3131,0.3138,0.3129,0.3268,0.3288,0.307,0.307,0.307,0,0,0.2817,0.2848,0.286,0.2906,0.2928,0.296,0.2954,0.2984,0.3012,0.2998,0.3036,0.3051,0.3065,0.3106,0.3121,0.31,0.3223,0.3144,0.3149,0.3136,0.3275,0.3296,0.3315,0.3073,0.3073,0.3072,0,0,0.2829,0.285,0.2879,0.2909,0.295,0.2969,0.2979,0.3016,0.3033,0.3076,0.3078,0.3111,0.3142,0.3162,0.3174,0.3237,0.3266,0.3243,0.3264,0.34,0.3419,0.3437,0.352,0.3544,0.3242,0.3242,0.3242,0,0.2817,0.2861,0.2891,0.293,0.2955,0.2975,0.3008,0.3035,0.3076,0.3104,0.3096,0.3174,0.3173,0.3233,0.3245,0.3253,0.3324,0.3224,0.3412,0.343,0.3447,0.3528,0.3554,0.3245,0.3245,0.3245,0.3244,0,0.2856,0.2889,0.2911,0.2968,0.2998,0.3032,0.3074,0.3108,0.313,0.3161,0.3231,0.3249,0.3298,0.3302,0.3283,0.3392,0.3401,0.3413,0.3387,0.3472,0.3552,0.3578,0.325,0.3248,0.3248,0.3247,0,0,0.2837,0.2919,0.2927,0.2957,0.302,0.305,0.3107,0.3169,0.3213,0.326,0.3332,0.3362,0.3379,0.3393,0.3391,0.3471,0.3633,0.3482,0.3488,0.3561,0.392,0.3861,0.3884,0.37,0.3705,0.3709,0.3927,0,0.2856,0.2923,0.2964,0.3024,0.306,0.3106,0.3158,0.3217,0.327,0.3348,0.339,0.3452,0.3416,0.3442,0.3526,0.3613,0.3706,0.3571,0.3827,0.3833,0.377,0.3914,0.3768,0.3946,0.3953,0.3957,0.396,0,0.2882,0.2925,0.2979,0.3058,0.3079,0.3114,0.3204,0.3256,0.3364,0.3411,0.3492,0.3536,0.3637,0.3604,0.382,0.3747,0.3833,0.3892,0.3904,0.3843,0.3824,0.3863,0.3993,0.3839,0.4001,0.3998,0.3995,0,0.2857,0.2939,0.2978,0.3005,0.3092,0.3128,0.3176,0.3272,0.3327,0.3457,0.3523,0.3656,0.3737,0.3884,0.3982,0.3942,0.4224,0.4202,0.4228,0.4223,0.4141,0.4121,0.4146,0.4381,0.4381,0.438,0.438,0,0.2867,0.2902,0.2967,0.2991,0.304,0.3111,0.3175,0.3248,0.336,0.3437,0.355,0.3644,0.3821,0.3981,0.4065,0.4231,0.432,0.4258,0.4298,0.4152,0.4131,0.4022,0.3944,0.4388,0.4386,0.4385,0.4383,0,0.2839,0.2884,0.2928,0.3005,0.3028,0.3061,0.3155,0.3211,0.3325,0.3438,0.3488,0.3694,0.3903,0.4054,0.4298,0.4338,0.4368,0.4519,0.4299,0.4307,0.4152,0.4082,0.4052,0.3932,0.4607,0.4607,0.4607,0,0.2833,0.2852,0.2912,0.2933,0.2965,0.302,0.3062,0.3172,0.3237,0.3455,0.3516,0.3752,0.3897,0.4225,0.4351,0.4532,0.4373,0.4482,0.4366,0.4145,0.41,0.3932,0.3819,0.4286,0.4283,0.4281,0.4279,0,0.2815,0.2828,0.2857,0.2892,0.2927,0.2956,0.3028,0.3069,0.3213,0.3326,0.3497,0.3638,0.3953,0.4097,0.4328,0.4406,0.4237,0.4443,0.4309,0.3926,0.3658,0.3558,0.41,0.4261,0.4263,0.4264,0.4265,0.4266,0.279,0.2786,0.2817,0.2837,0.2874,0.2878,0.2862,0.2959,0.3039,0.3183,0.3396,0.3575,0.3837,0.4146,0.4193,0.4145,0.4125,0.4048,0.401,0.388,0.3661,0.4125,0.4264,0.4265,0.4267,0.4268,0.427,0,0.2745,0.2743,0.2766,0.2763,0.2757,0.2799,0.2826,0.2795,0.2835,0.3061,0.3204,0.3469,0.3622,0.3785,0.3861,0.3743,0.3583,0.362,0.3346,0.328,0.3799,0.3676,0.3578,0.3578,0.3578,0.3578,0.3578,0.3578,0.2722,0.2702,0.269,0.2636,0.2636,0.2557,0.2533,0.2525,0.263,0.2773,0.2934,0.3155,0.3393,0.3529,0.3428,0.3352,0.3064,0.2954,0.2921,0.3265,0.33,0.3333,0.3197,0.3,0.3,0.2272,0.2266,0.2262]},{"header":{"parameterUnit":"m.s-1","parameterCategory":2,"la1":30.2991,"la2":30.254,"lo1":-89.0895,"lo2":-89.0444,"dy":0.0017,"dx":0.0017,"nx":28,"ny":28,"refTime":"2025-09-13T21:00:00:Z","depth":"0","parameterNumber":3,"parameterNumberName":"V-component_of_CURRENTS"},"data":[0,0,0,0,0,0,0,0,0,0,0,0,0,0,0,0,0,0,0,0,0,0,0,0,0,0,0,0,0,0,0,0,0,0,0,0,0,0,0,0,0,0,0,0,0,0,0,0,0,0,0,0,0,0,0,0,0,0,-0.0261,-0.0262,0,-0.0325,-0.0326,-0.0327,-0.0372,-0.0372,-0.0372,-0.0372,-0.0492,-0.0495,-0.0498,0,0,0,0,0,0,0,0,0,0,0,0,0,-0.0208,-0.0209,-0.0261,-0.0262,-0.0262,-0.0324,-0.0326,-0.0327,-0.0372,-0.0372,-0.0372,-0.0372,-0.0491,-0.0494,-0.0498,0,0,0,0,0,0,0,0,0,0,0,0,0,-0.025,-0.0209,-0.0261,-0.029,-0.0293,-0.0324,-0.0326,-0.0327,-0.0372,-0.0372,-0.0372,-0.0372,-0.049,-0.0494,-0.0499,-0.0524,0,0,-0.0513,-0.0515,0,0,0,0,0,0,0,0,-0.0247,-0.0252,-0.0285,-0.0288,-0.0292,-0.0338,-0.035,-0.0395,-0.0372,-0.0345,-0.0372,-0.0372,-0.0444,-0.0452,-0.0467,-0.053,-0.0535,-0.0513,-0.0516,-0.0518,-0.0519,0,0,0,0,0,0,0,-0.0244,-0.025,-0.0289,-0.0286,-0.029,-0.0309,-0.0316,-0.0359,-0.0396,-0.0347,-0.035,-0.0353,-0.0446,-0.0462,-0.047,-0.0537,-0.0513,-0.0517,-0.052,-0.0522,-0.0617,-0.0617,0,0,0,0,0,0,-0.0229,-0.0247,-0.0287,-0.0291,-0.0266,-0.031,-0.0317,-0.0325,-0.0394,-0.0404,-0.0352,-0.0354,-0.0454,-0.0465,-0.0475,-0.0491,-0.0518,-0.0522,-0.0525,-0.0618,-0.0617,-0.0617,0,0,0,0,0,0,-0.0228,-0.0232,-0.0285,-0.0268,-0.0275,-0.031,-0.0319,-0.0326,-0.0339,-0.0397,-0.0408,-0.0357,-0.0455,-0.0468,-0.0507,-0.0497,-0.0524,-0.0529,-0.0618,-0.0618,-0.0617,-0.0535,0,0,0,0,0,0,-0.0226,-0.0232,-0.0228,-0.0267,-0.0275,-0.0291,-0.0319,-0.0327,-0.0339,-0.0342,-0.0405,-0.0416,-0.0456,-0.05,-0.0512,-0.0504,-0.0532,-0.0618,-0.0618,-0.0617,-0.0538,-0.0532,-0.0527,0,0,0,0,0,-0.0224,-0.0216,-0.0227,-0.0232,-0.0271,-0.029,-0.0296,-0.0324,-0.0339,-0.0338,-0.0383,-0.0414,-0.0505,-0.0504,-0.0518,-0.051,-0.0618,-0.0618,-0.0617,-0.0541,-0.0533,-0.0527,0,0,0,0,0,0,-0.0186,-0.0221,-0.0234,-0.0236,-0.0255,-0.0296,-0.0296,-0.0318,-0.0352,-0.0357,-0.0416,-0.043,-0.046,-0.0498,-0.0494,-0.0537,-0.0566,-0.0568,-0.0503,-0.0496,-0.0491,-0.0437,-0.0536,0,0,0,0,0,-0.0176,-0.0181,-0.0215,-0.0213,-0.0222,-0.0258,-0.0268,-0.0287,-0.0323,-0.0338,-0.0383,-0.0431,-0.0469,-0.0491,-0.0533,-0.0559,-0.0533,-0.0563,-0.0557,-0.0552,-0.0518,-0.0465,-0.045,-0.0615,-0.0615,-0.0615,0,0,-0.0159,-0.0178,-0.0181,-0.0205,-0.0225,-0.0226,-0.0265,-0.0274,-0.0274,-0.0346,-0.0366,-0.0415,-0.0473,-0.0499,-0.0515,-0.0528,-0.0492,-0.0551,-0.0546,-0.0514,-0.0463,-0.0446,-0.0431,-0.0615,-0.0615,-0.0615,0,0,-0.0124,-0.0147,-0.0138,-0.0153,-0.0173,-0.0196,-0.0194,-0.0234,-0.025,-0.0278,-0.0325,-0.0355,-0.0431,-0.0454,-0.0479,-0.0466,-0.0464,-0.0494,-0.0421,-0.0371,-0.0355,-0.0341,-0.0279,-0.026,-0.049,-0.0489,-0.0489,0,-0.0098,-0.0097,-0.0135,-0.0129,-0.013,-0.0178,-0.0162,-0.0187,-0.0232,-0.0232,-0.0273,-0.0338,-0.04,-0.0401,-0.0406,-0.0449,-0.0414,-0.0442,-0.0358,-0.0344,-0.0331,-0.027,-0.025,-0.0485,-0.0486,-0.0486,-0.0487,0,-0.0058,-0.0057,-0.0052,-0.0061,-0.0067,-0.0063,-0.0097,-0.0104,-0.0137,-0.0159,-0.0172,-0.0244,-0.0268,-0.0309,-0.0362,-0.031,-0.031,-0.0354,-0.0364,-0.0308,-0.0249,-0.023,-0.048,-0.0481,-0.0482,-0.0483,0,0,-0.0003,-0.0019,-0.0017,0.0002,-0.0031,-0.002,-0.0023,-0.0024,0.0015,-0.0054,-0.0001,-0.0103,-0.0122,-0.015,-0.021,-0.0188,-0.0091,-0.0229,-0.0228,-0.0144,0.0047,0.0,0.0016,-0.0114,-0.0111,-0.0108,0.0056,0,0.0043,0.0078,0.0049,0.0093,0.0113,0.0076,0.0095,0.0089,0.0074,0.0112,0.0047,0.0066,-0.0067,-0.0051,-0.0058,-0.0067,-0.0038,-0.013,-0.0037,-0.0033,-0.0064,0.0038,-0.0015,0.0123,0.0075,0.0078,0.0081,0,0.0094,0.0113,0.0162,0.0197,0.0206,0.023,0.0281,0.0291,0.0311,0.0308,0.0303,0.0267,0.0282,0.0171,0.0193,0.0146,0.0109,0.0085,0.009,0.0039,-0.0044,0.0055,0.0159,-0.0075,0.011,0.0108,0.0106,0,0.0175,0.0198,0.0249,0.0254,0.028,0.0317,0.0339,0.0362,0.042,0.0467,0.0541,0.0506,0.0565,0.0496,0.0401,0.0328,0.0447,0.0342,0.0267,0.0263,0.0234,0.0222,0.0144,0.0379,0.0378,0.0378,0.0377,0,0.024,0.0287,0.0303,0.0337,0.0438,0.042,0.054,0.0554,0.0632,0.0756,0.0673,0.0791,0.0657,0.0675,0.0531,0.0484,0.0554,0.0329,0.0317,0.0257,0.0246,0.0049,-0.0076,0.0384,0.0383,0.0381,0.038,0,0.0335,0.0326,0.0409,0.0456,0.0483,0.0569,0.0681,0.0777,0.0829,0.1004,0.1046,0.1079,0.1104,0.0947,0.0893,0.0706,0.0509,0.0577,0.0517,0.0493,0.0152,0.0034,0.0028,-0.0052,0.054,0.054,0.054,0,0.0394,0.0436,0.0519,0.059,0.0624,0.0736,0.0825,0.0878,0.0998,0.1191,0.131,0.1386,0.1454,0.1338,0.1037,0.0824,0.058,0.0604,0.0423,0.0171,0.0032,-0.0046,-0.0119,0.043,0.0429,0.0429,0.0428,0,0.0519,0.0542,0.0611,0.0743,0.0848,0.0973,0.1109,0.1232,0.1338,0.1494,0.1719,0.1798,0.1679,0.1464,0.1131,0.0916,0.0425,0.0581,0.0348,-0.002,-0.013,-0.0227,0.0285,0.0422,0.0422,0.0423,0.0423,0.0423,0.0631,0.0706,0.0785,0.0915,0.1033,0.1198,0.1324,0.1483,0.1688,0.1931,0.2006,0.2156,0.1784,0.1329,0.1019,0.0365,0.0412,0.0131,0.0031,-0.0006,-0.0161,0.0338,0.042,0.042,0.0421,0.0421,0.0422,0,0.0759,0.0823,0.0951,0.1096,0.1235,0.1272,0.15,0.1634,0.1878,0.2112,0.2293,0.2195,0.1699,0.1151,0.0313,-0.0115,-0.0281,-0.0361,-0.051,-0.0543,-0.007,-0.0164,-0.024,-0.024,-0.0239,-0.0239,-0.0239,-0.0239,0.0835,0.0957,0.1,0.1227,0.1337,0.1528,0.1659,0.1861,0.2052,0.2303,0.2398,0.2465,0.1972,0.0542,-0.0455,-0.0673,-0.0967,-0.1008,-0.1108,-0.0867,-0.0831,-0.0797,-0.0917,-0.115,-0.1151,-0.1561,-0.1565,-0.1569]}],[{"header":{"parameterUnit":"m.s-1","parameterCategory":2,"la1":30.2991,"la2":30.254,"lo1":-89.0895,"lo2":-89.0444,"dy":0.0017,"dx":0.0017,"nx":28,"ny":28,"refTime":"2025-09-13T21:00:00:Z","depth":"2","parameterNumber":2,"parameterNumberName":"U-component_of_CURRENTS"},"data":[0,0,0,0,0,0,0,0,0,0,0,0,0,0,0,0,0,0,0,0,0,0,0,0,0,0,0,0,0,0,0,0,0,0,0,0,0,0,0,0,0,0,0,0,0,0,0,0,0,0,0,0,0,0,0,0,0,0,0.2467,0.2468,0,0.252,0.252,0.252,0.2501,0.2501,0.25,0.2499,0.2542,0.2544,0.2546,0,0,0,0,0,0,0,0,0,0,0,0,0,0.234,0.2342,0.2467,0.2468,0.2469,0.252,0.252,0.252,0.2502,0.2501,0.25,0.2499,0.2542,0.2544,0.2546,0,0,0,0,0,0,0,0,0,0,0,0,0,0.239,0.2343,0.2467,0.2469,0.247,0.2519,0.252,0.252,0.2502,0.2501,0.2499,0.2498,0.2541,0.2544,0.2546,0.2587,0,0,0.2555,0.2556,0,0,0,0,0,0,0,0,0.2387,0.2394,0.2467,0.2469,0.247,0.2506,0.2491,0.2544,0.2502,0.2485,0.2499,0.2498,0.2533,0.2536,0.2543,0.2589,0.2591,0.2555,0.2557,0.2558,0.2559,0,0,0,0,0,0,0,0.2384,0.2392,0.2483,0.2469,0.247,0.2464,0.247,0.2501,0.2512,0.2487,0.2486,0.2499,0.2533,0.254,0.2544,0.2592,0.2555,0.2558,0.2559,0.256,0.265,0.2651,0,0,0,0,0,0,0.2388,0.2389,0.2482,0.2485,0.243,0.2468,0.2474,0.2492,0.2511,0.2515,0.25,0.2498,0.2536,0.2541,0.2545,0.2621,0.2558,0.2561,0.2562,0.265,0.2651,0.2651,0,0,0,0,0,0,0.2385,0.2396,0.248,0.2441,0.2452,0.2472,0.2493,0.2494,0.2507,0.2523,0.2524,0.2513,0.2535,0.2541,0.2575,0.2622,0.2562,0.2565,0.2649,0.265,0.2651,0.2756,0,0,0,0,0,0,0.2382,0.2395,0.2401,0.2442,0.2454,0.2498,0.2494,0.2496,0.2519,0.2517,0.2535,0.2537,0.2535,0.2571,0.2578,0.2624,0.2567,0.2648,0.2649,0.2651,0.2752,0.2761,0.2768,0,0,0,0,0,0.2377,0.2388,0.2401,0.2411,0.2465,0.2499,0.2504,0.2511,0.2521,0.252,0.2541,0.2536,0.2583,0.2574,0.2582,0.2631,0.2647,0.2649,0.2651,0.2748,0.2759,0.2768,0,0,0,0,0,0,0.2357,0.2389,0.2403,0.243,0.246,0.2497,0.2509,0.2522,0.2541,0.255,0.2556,0.256,0.2613,0.2596,0.2586,0.2654,0.2611,0.2614,0.2682,0.2693,0.2701,0.2745,0.2569,0,0,0,0,0,0.2354,0.2364,0.2404,0.2433,0.2448,0.2485,0.25,0.2515,0.2544,0.2551,0.2565,0.2585,0.2626,0.2637,0.266,0.27,0.2711,0.2728,0.2737,0.2744,0.2782,0.2868,0.2889,0.2657,0.2657,0.2657,0,0,0.2359,0.2382,0.239,0.2428,0.2458,0.2486,0.249,0.2529,0.2573,0.2557,0.261,0.2626,0.2645,0.2695,0.2714,0.2685,0.28,0.2746,0.2753,0.2787,0.2872,0.2896,0.2916,0.2658,0.2657,0.2657,0,0,0.2388,0.2398,0.2418,0.2436,0.2482,0.2498,0.2512,0.2554,0.259,0.2642,0.2656,0.2701,0.273,0.2768,0.2791,0.2857,0.2852,0.2846,0.2922,0.3005,0.3027,0.3046,0.3029,0.3046,0.2838,0.2838,0.2839,0,0.2383,0.2429,0.2431,0.2461,0.2488,0.2506,0.2548,0.2588,0.2637,0.2695,0.2664,0.2763,0.2779,0.2878,0.2904,0.2886,0.2896,0.2889,0.3023,0.3042,0.306,0.3038,0.3056,0.2844,0.2843,0.2843,0.2842,0,0.2423,0.2463,0.2483,0.2518,0.2541,0.2579,0.2632,0.2677,0.2716,0.2763,0.2867,0.2883,0.2942,0.295,0.296,0.3091,0.3041,0.3038,0.301,0.3091,0.306,0.3077,0.2851,0.2849,0.2848,0.2846,0,0,0.2397,0.2488,0.2498,0.2541,0.2577,0.2609,0.2694,0.2785,0.2864,0.2905,0.3019,0.309,0.3102,0.3129,0.3133,0.3205,0.3325,0.3186,0.3188,0.3189,0.3451,0.3342,0.3348,0.3359,0.3364,0.3368,0.3356,0,0.2428,0.2513,0.2543,0.2622,0.2666,0.271,0.2782,0.287,0.294,0.3043,0.3116,0.3204,0.3168,0.3207,0.328,0.3329,0.3384,0.3325,0.3355,0.3354,0.3269,0.3372,0.3114,0.3079,0.3372,0.3375,0.3377,0,0.2453,0.2507,0.2603,0.2705,0.2728,0.2769,0.2894,0.2963,0.3111,0.3175,0.3269,0.3319,0.3435,0.3397,0.3505,0.347,0.3489,0.3503,0.3502,0.3393,0.3282,0.3055,0.3098,0.3404,0.3402,0.34,0.3398,0,0.2446,0.2552,0.2639,0.2664,0.2765,0.2837,0.2888,0.3015,0.3098,0.3269,0.334,0.3455,0.3532,0.3586,0.3609,0.3584,0.3717,0.3667,0.3569,0.3555,0.3339,0.33,0.3784,0.3784,0.3784,0.3784,0.3784,0,0.2461,0.2524,0.265,0.2685,0.2783,0.2852,0.2966,0.3046,0.3178,0.3285,0.34,0.3492,0.3607,0.3683,0.3669,0.3657,0.3752,0.3617,0.3584,0.3355,0.332,0.3614,0.3594,0.3783,0.3784,0.3784,0.3784,0,0.2467,0.2529,0.2644,0.2769,0.2786,0.2873,0.2978,0.306,0.3181,0.3326,0.3392,0.3567,0.3647,0.3692,0.3789,0.3726,0.3726,0.3703,0.3379,0.331,0.3475,0.346,0.3575,0.3572,0.357,0.3567,0.3566,0,0.25,0.2577,0.2698,0.2725,0.2782,0.2883,0.2929,0.3051,0.3146,0.3346,0.3426,0.3576,0.3621,0.3667,0.3635,0.3569,0.3672,0.3314,0.3243,0.3518,0.3473,0.3462,0.3452,0.2951,0.2945,0.2939,0.2935,0,0.2611,0.2666,0.272,0.2734,0.2791,0.2877,0.297,0.3011,0.3171,0.3246,0.3349,0.3388,0.3484,0.3335,0.3317,0.3248,0.3296,0.32,0.3627,0.3055,0.2933,0.2887,0.2897,0.2886,0.2891,0.2895,0.2897,0.2899,0.2697,0.2739,0.2762,0.2743,0.2803,0.2834,0.283,0.2905,0.2947,0.2978,0.3142,0.3072,0.3126,0.2925,0.2842,0.281,0.3013,0.2884,0.2899,0.2921,0.2863,0.2746,0.2645,0.2649,0.2652,0.2654,0.2656,0,0.2755,0.2739,0.2747,0.2721,0.2707,0.2777,0.2816,0.2744,0.2682,0.2726,0.2712,0.2451,0.2367,0.243,0.2307,0.2311,0.228,0.2225,0.2172,0.2223,0.2268,0.2175,0.1775,0.1772,0.1769,0.1767,0,0,0.2804,0.2739,0.2667,0.2581,0.2587,0.2561,0.2544,0.2396,0.2354,0.2146,0.2068,0.2186,0.2319,0.1982,0.1969,0.1861,0.2016,0.1786,0.2497,0.2483,0.2523,0.2657,0.2573,0,0,0,0,0]},{"header":{"parameterUnit":"m.s-1","parameterCategory":2,"la1":30.2991,"la2":30.254,"lo1":-89.0895,"lo2":-89.0444,"dy":0.0017,"dx":0.0017,"nx":28,"ny":28,"refTime":"2025-09-13T21:00:00:Z","depth":"2","parameterNumber":3,"parameterNumberName":"V-component_of_CURRENTS"},"data":[0,0,0,0,0,0,0,0,0,0,0,0,0,0,0,0,0,0,0,0,0,0,0,0,0,0,0,0,0,0,0,0,0,0,0,0,0,0,0,0,0,0,0,0,0,0,0,0,0,0,0,0,0,0,0,0,0,0,-0.0035,-0.0036,0,-0.0087,-0.0087,-0.0088,-0.0116,-0.0116,-0.0116,-0.0117,-0.0216,-0.0219,-0.0221,0,0,0,0,0,0,0,0,0,0,0,0,0,-0.0017,-0.0017,-0.0035,-0.0036,-0.0037,-0.0087,-0.0087,-0.0088,-0.0116,-0.0116,-0.0117,-0.0117,-0.0215,-0.0218,-0.0221,0,0,0,0,0,0,0,0,0,0,0,0,0,-0.0041,-0.0017,-0.0035,-0.0057,-0.006,-0.0087,-0.0087,-0.0088,-0.0116,-0.0116,-0.0117,-0.0117,-0.0214,-0.0218,-0.0222,-0.024,0,0,-0.0233,-0.0235,0,0,0,0,0,0,0,0,-0.004,-0.0042,-0.0053,-0.0056,-0.0059,-0.0096,-0.0117,-0.0142,-0.0116,-0.0094,-0.0117,-0.0117,-0.0181,-0.0187,-0.0195,-0.0245,-0.0249,-0.0233,-0.0236,-0.0237,-0.0238,0,0,0,0,0,0,0,-0.0038,-0.004,-0.0055,-0.0054,-0.0057,-0.0084,-0.0087,-0.0122,-0.0136,-0.0096,-0.0098,-0.0105,-0.0182,-0.0191,-0.0197,-0.0251,-0.0233,-0.0237,-0.0239,-0.0241,-0.0301,-0.03,0,0,0,0,0,0,-0.003,-0.0038,-0.0053,-0.0057,-0.0051,-0.0084,-0.0087,-0.0083,-0.0134,-0.0142,-0.0105,-0.0106,-0.0184,-0.0193,-0.0201,-0.0209,-0.0237,-0.0241,-0.0243,-0.0302,-0.0301,-0.03,0,0,0,0,0,0,-0.0029,-0.003,-0.0051,-0.005,-0.0055,-0.0084,-0.0079,-0.0084,-0.0094,-0.0141,-0.015,-0.0109,-0.0185,-0.0196,-0.0224,-0.0214,-0.0243,-0.0246,-0.0302,-0.0301,-0.03,-0.0236,0,0,0,0,0,0,-0.0028,-0.0029,-0.0019,-0.0049,-0.0054,-0.0051,-0.0079,-0.0085,-0.0098,-0.01,-0.0148,-0.0157,-0.0186,-0.0218,-0.0228,-0.0219,-0.0249,-0.0303,-0.0302,-0.0301,-0.0239,-0.0233,-0.0228,0,0,0,0,0,-0.0027,-0.0005,-0.0017,-0.0019,-0.004,-0.005,-0.0054,-0.0077,-0.0098,-0.0089,-0.0126,-0.0155,-0.0217,-0.0221,-0.0232,-0.0225,-0.0304,-0.0302,-0.0301,-0.0242,-0.0234,-0.0228,0,0,0,0,0,0,0.0003,-0.0007,-0.0021,-0.0005,-0.0022,-0.0055,-0.0051,-0.0075,-0.0098,-0.0108,-0.0154,-0.0165,-0.0185,-0.0213,-0.0216,-0.0237,-0.0263,-0.0264,-0.0214,-0.0208,-0.0202,-0.0198,-0.0252,0,0,0,0,0,0.0016,0.003,0.0008,0.0017,0.0013,-0.0022,-0.003,-0.005,-0.0078,-0.0089,-0.0121,-0.0158,-0.0188,-0.0204,-0.0233,-0.0249,-0.028,-0.0249,-0.0243,-0.0238,-0.0242,-0.0267,-0.0265,-0.0295,-0.0295,-0.0295,0,0,0.0026,0.0022,0.0028,0.0024,0.0006,0.0016,-0.0026,-0.0037,-0.0041,-0.0098,-0.0109,-0.0144,-0.0188,-0.0201,-0.0212,-0.0224,-0.0246,-0.0237,-0.0232,-0.0239,-0.0266,-0.0263,-0.026,-0.0294,-0.0294,-0.0295,0,0,0.0053,0.0053,0.0074,0.0072,0.0054,0.0039,0.0038,0.0009,-0.0014,-0.003,-0.0074,-0.0099,-0.0139,-0.0166,-0.0187,-0.017,-0.0217,-0.0178,-0.0148,-0.0172,-0.0169,-0.0168,-0.0205,-0.0207,-0.0173,-0.0173,-0.0173,0,0.0066,0.0088,0.0075,0.0096,0.01,0.0056,0.0075,0.0049,0.0011,-0.0003,-0.0022,-0.0075,-0.012,-0.0139,-0.014,-0.0158,-0.0186,-0.0169,-0.0164,-0.0164,-0.0163,-0.0201,-0.0205,-0.017,-0.017,-0.017,-0.0171,0,0.0111,0.0127,0.0139,0.0157,0.0163,0.0169,0.0141,0.0132,0.0101,0.0073,0.0045,-0.001,-0.004,-0.0057,-0.0103,-0.0119,-0.0145,-0.0155,-0.018,-0.0156,-0.0198,-0.0203,-0.0165,-0.0166,-0.0167,-0.0168,0,0,0.0144,0.0167,0.0171,0.0194,0.0195,0.0209,0.0204,0.0194,0.0198,0.0151,0.0152,0.0083,0.0047,0.0019,-0.0034,-0.0067,-0.0101,-0.0114,-0.0117,-0.0149,-0.0166,-0.0187,-0.0195,-0.0111,-0.0111,-0.0112,-0.0197,0,0.0179,0.0231,0.0231,0.0283,0.0311,0.029,0.0301,0.0284,0.0254,0.0247,0.0172,0.0154,0.0077,0.0064,0.0015,-0.007,-0.011,-0.0078,-0.0187,-0.019,-0.021,-0.0199,-0.0163,-0.0236,-0.0202,-0.0202,-0.0203,0,0.0225,0.0256,0.0306,0.0354,0.0366,0.0391,0.0415,0.0416,0.0382,0.0358,0.0318,0.026,0.0189,0.0131,-0.0004,0.0019,-0.0077,-0.0143,-0.0147,-0.0194,-0.0219,-0.0256,-0.0247,-0.0211,-0.0211,-0.021,-0.021,0,0.0262,0.0314,0.0357,0.0375,0.0417,0.0436,0.0457,0.0448,0.0458,0.0426,0.0436,0.0343,0.0309,0.0181,0.0015,0.0006,-0.0128,-0.0148,-0.0255,-0.0259,-0.0264,-0.0267,-0.0239,-0.0239,-0.0239,-0.0239,-0.0239,0,0.0307,0.0346,0.038,0.041,0.0481,0.0488,0.0545,0.0549,0.0552,0.0579,0.0492,0.0497,0.0319,0.0215,0.0052,-0.012,-0.0101,-0.0256,-0.0279,-0.0241,-0.024,-0.0247,-0.0247,-0.0242,-0.0241,-0.0241,-0.024,0,0.0337,0.0354,0.042,0.0475,0.0498,0.0552,0.0617,0.0649,0.065,0.0682,0.0677,0.0609,0.0482,0.0292,0.0095,-0.0054,-0.0222,-0.0288,-0.0241,-0.0258,-0.0349,-0.0345,-0.0411,-0.0413,-0.0414,-0.0415,-0.0416,0,0.0351,0.038,0.0471,0.0516,0.0542,0.0615,0.0657,0.069,0.0722,0.0752,0.0767,0.0683,0.0626,0.0335,0.0071,-0.0197,-0.0232,-0.0344,-0.0357,-0.0349,-0.0366,-0.0359,-0.0353,-0.0343,-0.0343,-0.0344,-0.0344,0,0.0375,0.0403,0.0462,0.0549,0.0611,0.069,0.075,0.0808,0.084,0.0897,0.0937,0.091,0.0647,0.0408,0.0048,-0.0136,-0.0299,-0.0355,-0.0351,-0.0301,-0.0291,-0.0305,-0.03,-0.0345,-0.0345,-0.0345,-0.0345,-0.0345,0.0381,0.0423,0.0481,0.0581,0.0655,0.0732,0.082,0.0893,0.0991,0.1081,0.1048,0.1029,0.0742,0.0305,0.0008,-0.03,-0.0304,-0.0416,-0.0413,-0.041,-0.0383,-0.0374,-0.044,-0.0441,-0.0441,-0.0442,-0.0442,0,0.0355,0.0408,0.0498,0.0601,0.0695,0.0726,0.0855,0.0954,0.1105,0.1164,0.1216,0.0958,0.0692,0.037,-0.0077,-0.0358,-0.0372,-0.0444,-0.0392,-0.0389,-0.0388,-0.0357,-0.041,-0.041,-0.041,-0.0411,0,0,0.0329,0.0388,0.0449,0.0599,0.0686,0.0805,0.0901,0.1074,0.1169,0.1253,0.125,0.1174,0.0782,0.0467,0.0095,-0.0146,-0.0204,-0.0201,-0.02,-0.0093,-0.0087,-0.0351,-0.0299,0,0,0,0,0]}],[{"header":{"parameterUnit":"m.s-1","parameterCategory":2,"la1":30.2991,"la2":30.254,"lo1":-89.0895,"lo2":-89.0444,"dy":0.0017,"dx":0.0017,"nx":28,"ny":28,"refTime":"2025-09-13T21:00:00:Z","depth":"4","parameterNumber":2,"parameterNumberName":"U-component_of_CURRENTS"},"data":[0,0,0,0,0,0,0,0,0,0,0,0,0,0,0,0,0,0,0,0,0,0,0,0,0,0,0,0,0,0,0,0,0,0,0,0,0,0,0,0,0,0,0,0,0,0,0,0,0,0,0,0,0,0,0,0,0,0,0.123,0.1231,0,0.1304,0.1304,0.1305,0.136,0.1361,0.1362,0.1362,0.1397,0.1397,0.1397,0,0,0,0,0,0,0,0,0,0,0,0,0,0.1158,0.1159,0.123,0.1231,0.1232,0.1303,0.1304,0.1305,0.136,0.1361,0.1362,0.1362,0.1397,0.1397,0.1397,0,0,0,0,0,0,0,0,0,0,0,0,0,0.1204,0.1159,0.123,0.127,0.1274,0.1303,0.1304,0.1305,0.136,0.1361,0.1362,0.1363,0.1397,0.1397,0.1397,0.138,0,0,0.1399,0.1399,0,0,0,0,0,0,0,0,0.1202,0.1207,0.1263,0.1267,0.1272,0.1325,0.1292,0.1329,0.136,0.1325,0.1362,0.1363,0.137,0.1372,0.1382,0.1381,0.1383,0.1399,0.1399,0.1399,0.1399,0,0,0,0,0,0,0,0.1198,0.1204,0.1257,0.1264,0.1269,0.1291,0.1298,0.1299,0.1339,0.1328,0.1333,0.1344,0.1372,0.1381,0.1383,0.1383,0.1399,0.1399,0.1399,0.14,0.1477,0.1479,0,0,0,0,0,0,0.1191,0.1201,0.1255,0.1259,0.1241,0.1292,0.13,0.1306,0.134,0.1347,0.1343,0.1346,0.138,0.1382,0.1384,0.1453,0.1399,0.14,0.14,0.1476,0.1478,0.148,0,0,0,0,0,0,0.1189,0.1195,0.1252,0.1234,0.1243,0.1292,0.1298,0.1307,0.1352,0.1352,0.1358,0.1384,0.1381,0.1384,0.1415,0.1451,0.14,0.14,0.1473,0.1476,0.1479,0.1533,0,0,0,0,0,0,0.1186,0.1193,0.121,0.1233,0.1244,0.1287,0.1298,0.1307,0.1355,0.1361,0.1387,0.139,0.1382,0.1414,0.1415,0.1451,0.1401,0.1471,0.1475,0.1478,0.1529,0.1538,0.1545,0,0,0,0,0,0.1183,0.119,0.121,0.1218,0.126,0.1288,0.1296,0.1333,0.1357,0.1377,0.14,0.1391,0.1437,0.1416,0.1416,0.1453,0.147,0.1474,0.1478,0.1526,0.1536,0.1545,0,0,0,0,0,0,0.1166,0.1197,0.122,0.1237,0.1273,0.1299,0.1326,0.1352,0.1388,0.1404,0.1404,0.1408,0.1442,0.1445,0.1422,0.1488,0.1456,0.146,0.1492,0.1502,0.1509,0.1507,0.1401,0,0,0,0,0,0.117,0.1189,0.1222,0.1243,0.1262,0.1303,0.1327,0.1355,0.1383,0.1402,0.1421,0.1443,0.1454,0.1477,0.1477,0.1517,0.1527,0.1546,0.1554,0.156,0.1561,0.1613,0.1625,0.1493,0.1493,0.1493,0,0,0.1172,0.1192,0.1205,0.1242,0.1275,0.1303,0.1321,0.1366,0.1392,0.1397,0.1445,0.1459,0.1465,0.1501,0.1521,0.1517,0.1606,0.1565,0.1571,0.1567,0.1619,0.1631,0.1643,0.1496,0.1495,0.1495,0,0,0.1171,0.1203,0.1218,0.1247,0.13,0.1326,0.1347,0.1395,0.1423,0.1466,0.1474,0.1523,0.1542,0.1566,0.1574,0.1631,0.1629,0.1637,0.1692,0.1744,0.1755,0.1764,0.18,0.1813,0.166,0.166,0.166,0,0.1179,0.1192,0.1229,0.125,0.1276,0.1339,0.1362,0.1396,0.1451,0.148,0.1489,0.1564,0.1572,0.1628,0.1648,0.1648,0.1669,0.1653,0.1753,0.1763,0.1772,0.1806,0.182,0.1663,0.1663,0.1663,0.1662,0,0.1182,0.1204,0.1217,0.1263,0.1299,0.1331,0.1381,0.1436,0.1485,0.1518,0.1591,0.1623,0.1684,0.1693,0.1683,0.1762,0.1752,0.174,0.1726,0.1789,0.1821,0.1834,0.1668,0.1667,0.1666,0.1665,0,0,0.1164,0.1209,0.1218,0.1245,0.1307,0.1342,0.1396,0.1461,0.1527,0.1585,0.1667,0.1701,0.1757,0.1772,0.1796,0.1839,0.1922,0.1824,0.1826,0.1854,0.2031,0.1891,0.1891,0.1929,0.1932,0.1934,0.203,0,0.116,0.119,0.1215,0.1266,0.1288,0.1359,0.1413,0.1488,0.1555,0.1654,0.1715,0.1791,0.1776,0.1838,0.1883,0.1899,0.1957,0.1896,0.1971,0.1973,0.1836,0.1902,0.1941,0.2039,0.2042,0.2044,0.2045,0,0.1146,0.1171,0.1203,0.1279,0.1302,0.1358,0.1481,0.1541,0.1671,0.1729,0.183,0.1876,0.1967,0.1953,0.2036,0.1999,0.2028,0.2037,0.2041,0.1896,0.1856,0.1963,0.2068,0.2066,0.2065,0.2063,0.2062,0,0.1106,0.1164,0.1193,0.1214,0.1311,0.1371,0.1457,0.158,0.1646,0.1806,0.1868,0.1978,0.2065,0.2099,0.2116,0.2093,0.2193,0.2169,0.2077,0.2068,0.214,0.2128,0.225,0.225,0.225,0.225,0.2249,0,0.1062,0.1095,0.1195,0.1211,0.1308,0.1386,0.1507,0.1608,0.1748,0.1829,0.193,0.1997,0.2105,0.2161,0.2161,0.2146,0.2243,0.2091,0.2086,0.2161,0.2151,0.2149,0.2136,0.2253,0.2252,0.2252,0.2251,0,0.0991,0.1048,0.1103,0.1224,0.1284,0.137,0.1542,0.1605,0.1753,0.1868,0.1918,0.205,0.2116,0.2182,0.2263,0.22,0.2198,0.2181,0.2263,0.226,0.2032,0.2021,0.2084,0.208,0.2077,0.2074,0.2071,0,0.095,0.096,0.1111,0.1167,0.123,0.1369,0.1443,0.1611,0.1667,0.1858,0.1884,0.2022,0.2089,0.209,0.2168,0.2189,0.2167,0.2157,0.208,0.2027,0.2017,0.2012,0.2006,0.2066,0.2065,0.2064,0.2063,0,0.0865,0.0932,0.0995,0.1101,0.1195,0.128,0.1408,0.1449,0.1619,0.1752,0.1818,0.1869,0.1962,0.2016,0.2067,0.2064,0.2142,0.212,0.2127,0.2055,0.2006,0.1998,0.1996,0.2051,0.2053,0.2054,0.2055,0,0.0826,0.0864,0.0944,0.104,0.1131,0.1162,0.1254,0.1327,0.1423,0.1633,0.1654,0.1793,0.1946,0.1953,0.1974,0.1983,0.1953,0.1876,0.1894,0.1909,0.1803,0.1712,0.1671,0,0,0,0,0,0.0765,0.0791,0.0864,0.0952,0.1013,0.1066,0.1195,0.1274,0.1448,0.1452,0.1562,0.1633,0.1705,0.1774,0.1751,0.1886,0.1948,0.1848,0.1865,0.1985,0.1999,0.1888,0,0,0,0,0,0,0.0731,0.0783,0.0831,0.0833,0.086,0.091,0.099,0.1104,0.1133,0.1322,0.1373,0.1516,0.161,0.17,0.1711,0.1734,0.1707,0.195,0.1945,0.1977,0.1989,0.2001,0.1892,0,0,0,0,0]},{"header":{"parameterUnit":"m.s-1","parameterCategory":2,"la1":30.2991,"la2":30.254,"lo1":-89.0895,"lo2":-89.0444,"dy":0.0017,"dx":0.0017,"nx":28,"ny":28,"refTime":"2025-09-13T21:00:00:Z","depth":"4","parameterNumber":3,"parameterNumberName":"V-component_of_CURRENTS"},"data":[0,0,0,0,0,0,0,0,0,0,0,0,0,0,0,0,0,0,0,0,0,0,0,0,0,0,0,0,0,0,0,0,0,0,0,0,0,0,0,0,0,0,0,0,0,0,0,0,0,0,0,0,0,0,0,0,0,0,0.0114,0.0114,0,0.008,0.008,0.008,0.0053,0.0053,0.0052,0.0052,0.001,0.0009,0.0008,0,0,0,0,0,0,0,0,0,0,0,0,0,0.0094,0.0095,0.0114,0.0114,0.0113,0.008,0.008,0.0079,0.0053,0.0053,0.0052,0.0052,0.001,0.0009,0.0008,0,0,0,0,0,0,0,0,0,0,0,0,0,0.0085,0.0095,0.0114,0.0097,0.0095,0.0081,0.008,0.0079,0.0053,0.0052,0.0052,0.0052,0.001,0.0009,0.0008,0.0005,0,0,0.0003,0.0003,0,0,0,0,0,0,0,0,0.0086,0.0086,0.0099,0.0098,0.0096,0.0071,0.0057,0.0054,0.0053,0.0068,0.0052,0.0052,0.003,0.0027,0.0021,0.0003,0.0002,0.0003,0.0002,0.0002,0.0001,0,0,0,0,0,0,0,0.0087,0.0087,0.01,0.0099,0.0097,0.0069,0.0068,0.0056,0.0051,0.0067,0.0065,0.0062,0.0029,0.0022,0.0019,0.0001,0.0003,0.0002,0.0001,0.0001,-0.003,-0.003,0,0,0,0,0,0,0.0096,0.0088,0.0101,0.0099,0.0091,0.007,0.0069,0.0079,0.0051,0.0047,0.0062,0.0061,0.0025,0.0021,0.0018,0.0026,0.0002,0.0001,-0.0,-0.003,-0.003,-0.003,0,0,0,0,0,0,0.0096,0.0098,0.0103,0.0092,0.0091,0.0072,0.0082,0.0078,0.0071,0.0048,0.0043,0.0059,0.0024,0.002,0.0011,0.0023,-0.0,-0.0001,-0.003,-0.003,-0.003,0.0034,0,0,0,0,0,0,0.0096,0.0098,0.0106,0.0094,0.0092,0.0102,0.0082,0.0078,0.007,0.0068,0.0044,0.0039,0.0024,0.0014,0.001,0.0021,-0.0002,-0.003,-0.003,-0.003,0.0032,0.0036,0.004,0,0,0,0,0,0.0095,0.0112,0.0106,0.0108,0.0104,0.0102,0.0099,0.0083,0.0071,0.0074,0.0056,0.004,0.0011,0.0013,0.0008,0.0019,-0.003,-0.003,-0.003,0.003,0.0035,0.004,0,0,0,0,0,0,0.0109,0.011,0.0104,0.0121,0.0114,0.0098,0.01,0.0085,0.0073,0.007,0.0045,0.004,0.0036,0.0015,0.0018,0.0008,-0.0014,-0.0015,0.0033,0.0038,0.0042,0.0043,-0.0004,0,0,0,0,0,0.0115,0.0127,0.0121,0.0133,0.0134,0.0116,0.0112,0.01,0.0088,0.0082,0.0065,0.0045,0.0032,0.0026,0.0011,0.0008,-0.0037,0.0009,0.0013,0.0017,0.0014,-0.0047,-0.0049,-0.003,-0.003,-0.003,0,0,0.0123,0.0125,0.0131,0.0136,0.0131,0.0141,0.0113,0.0113,0.012,0.008,0.0085,0.006,0.0034,0.0033,0.0029,0.0018,-0.0012,0.0017,0.0021,0.0015,-0.0047,-0.0049,-0.0051,-0.003,-0.003,-0.003,0,0,0.0146,0.0149,0.0166,0.0167,0.0163,0.0156,0.0159,0.0146,0.0141,0.0141,0.0113,0.0092,0.0078,0.0058,0.0048,0.0061,0.0012,0.0058,0.0082,0.0024,0.0021,0.0019,-0.0037,-0.0045,0.006,0.006,0.006,0,0.0151,0.0179,0.0169,0.0186,0.0194,0.0169,0.0189,0.0183,0.0167,0.0161,0.0152,0.011,0.009,0.0077,0.0083,0.0072,0.0028,0.0071,0.0029,0.0026,0.0022,-0.0035,-0.0045,0.0063,0.0063,0.0062,0.0062,0,0.0187,0.0208,0.022,0.0238,0.0243,0.0257,0.0251,0.025,0.0239,0.0221,0.0204,0.0169,0.0139,0.0132,0.0116,0.0085,0.0059,0.0043,0.002,0.0024,-0.0036,-0.0047,0.0067,0.0066,0.0065,0.0064,0,0,0.0201,0.0239,0.0243,0.0262,0.0274,0.0281,0.03,0.0302,0.03,0.0277,0.0266,0.024,0.0201,0.0185,0.0152,0.0104,0.0047,0.0068,0.0064,0.0018,-0.0086,-0.0061,-0.0072,0.0022,0.0021,0.0019,-0.0117,0,0.0233,0.0281,0.0291,0.0334,0.0359,0.0351,0.0371,0.0363,0.0345,0.0325,0.0277,0.0254,0.0229,0.0209,0.016,0.0069,0.002,0.0085,-0.0089,-0.0094,-0.0068,-0.0083,0.0014,-0.0126,-0.0128,-0.013,-0.0132,0,0.0265,0.0295,0.0348,0.0387,0.0397,0.0418,0.0431,0.0442,0.0407,0.0389,0.0346,0.0297,0.0232,0.0207,0.0058,0.0099,0.0015,-0.0056,-0.0063,-0.0071,-0.009,-0.0134,-0.0153,-0.0151,-0.0149,-0.0148,-0.0147,0,0.0282,0.0334,0.0381,0.0395,0.0432,0.0454,0.0472,0.0459,0.0464,0.0419,0.0397,0.0313,0.0265,0.0148,0.0016,0.0026,-0.0159,-0.0166,-0.0224,-0.0224,-0.0234,-0.023,-0.0274,-0.0274,-0.0273,-0.0273,-0.0273,0,0.0313,0.0348,0.0394,0.0419,0.0468,0.0483,0.0517,0.0514,0.0501,0.0499,0.0429,0.0395,0.0245,0.0129,0.0009,-0.0141,-0.0169,-0.0228,-0.0259,-0.0203,-0.0194,-0.0242,-0.0236,-0.0278,-0.0277,-0.0276,-0.0275,0,0.0322,0.0356,0.0408,0.046,0.048,0.0512,0.056,0.0572,0.0557,0.0548,0.0534,0.0434,0.0292,0.0137,-0.0064,-0.0144,-0.0295,-0.0339,-0.0271,-0.0295,-0.0322,-0.0311,-0.0425,-0.0425,-0.0425,-0.0426,-0.0426,0,0.033,0.0361,0.0432,0.0465,0.0495,0.0547,0.0581,0.0599,0.0614,0.0574,0.0566,0.0439,0.036,0.0093,-0.0067,-0.0299,-0.0317,-0.0399,-0.0354,-0.0319,-0.0338,-0.0327,-0.0317,-0.0426,-0.0426,-0.0426,-0.0426,0,0.0344,0.0372,0.0414,0.0483,0.0533,0.0589,0.0643,0.0657,0.0671,0.065,0.0591,0.0461,0.0305,0.011,-0.0066,-0.0229,-0.0351,-0.0402,-0.0403,-0.036,-0.0322,-0.0338,-0.0328,-0.0427,-0.0427,-0.0427,-0.0427,0,0.035,0.0378,0.0438,0.0497,0.056,0.0621,0.0648,0.0674,0.0689,0.0657,0.0633,0.0469,0.0374,0.0145,-0.0024,-0.0176,-0.0206,-0.0249,-0.0257,-0.0259,-0.0157,-0.0081,-0.0145,0,0,0,0,0,0.0366,0.0405,0.0449,0.0521,0.0581,0.0626,0.0685,0.0705,0.0717,0.0688,0.0669,0.0531,0.0296,0.0185,0.0039,-0.0035,-0.0242,-0.0213,-0.0297,-0.0432,-0.0431,-0.0336,0,0,0,0,0,0,0.0377,0.0433,0.045,0.0532,0.058,0.0653,0.0696,0.0704,0.0696,0.0682,0.0559,0.0501,0.0268,0.0381,0.0037,-0.0012,-0.0083,-0.0324,-0.0327,-0.0432,-0.0432,-0.0431,-0.0333,0,0,0,0,0]}]]